User: anonymous   Login
Location: Unspecified
(0.0000°N, 0.0000°E)
Time: 11:12:01
(UTC+00:00)
Language:

USA 72 - Orbit

View from above orbital plane
View from above orbital plane
View from above satellite
View from above satellite

Ground track
Ground track

The orbit data is extracted from the following two-line orbital elements,

1 21775U 91076A   18295.01523722 0.00000000  00000-0  00000-0 0    05
2 21775  63.3482 281.6000 3366110 269.7980  52.3374  5.53395312    08
Epoch (UTC): 22 October 2018 00:21:56
Eccentricity: 0.3366110
inclination: 63.3482°
perigee height: 2578 km
apogee height: 11668 km
right ascension of ascending node: 281.6000°
argument of perigee: 269.7980°
revolutions per day: 5.53395312
mean anomaly at epoch: 52.3374°
orbit number at epoch: 0

The dashed part of the orbit path shows where the satellite is in the earth's shadow,  

DLR